Regional Weather Roundup
Issued by NWS

Home | Current Version | Previous Version | Graphics & Text | Print | Product List | Glossary Off
Versions: 1 2 3 4 5 6 7 8 9 10 11 12 13 14 15 16 17 18 19 20 21 22 23 24 25 26 27 28 29 30 31 32 33 34 35 36 37 38 39 40 41 42 43 44 45 46 47 48 49 50

000
ASUS43 KLSX 251159
RWRMO

WEATHER SUMMARY FOR MISSOURI
NATIONAL WEATHER SERVICE SPRINGFIELD MO
700 AM CDT SUN JUN 25 2017

NOTE: "FAIR" INDICATES FEW OR NO CLOUDS BELOW 12,000 FEET WITH NO
       SIGNIFICANT WEATHER AND/OR OBSTRUCTIONS TO VISIBILITY.
       CURRENT SKY AND/OR WEATHER CONDITIONS ARE NOT AVAILABLE FOR
       CHILLICOTHE AND FARMINGTON.

MOZ001>031-035>038-043-044-053-054-251300-
...NORTHERN AND WESTERN MISSOURI...

CITY           SKY/WX    TMP DP  RH WIND       PRES   REMARKS
KANSAS CTY INT MOSUNNY   59  50  72 NW7       30.27R
6HR MIN TEMP:  58; 6HR MAX TEMP:  63;

KANSAS C DTWN  SUNNY     64  52  64 W5        30.27R
6HR MIN TEMP:  63; 6HR MAX TEMP:  70;

LEE`S SUMMIT   MOSUNNY   63  52  67 W6        30.27R
6HR MIN TEMP:  62; 6HR MAX TEMP:  67;

ST JOSEPH      MOSUNNY   56  52  86 CALM      30.29R
6HR MIN TEMP:  51; 6HR MAX TEMP:  64;

CHILLICOTHE      N/A     56  51  84 CALM      30.26R
6HR MIN TEMP:  52; 6HR MAX TEMP:  65;

KIRKSVILLE     SUNNY     57  52  83 W3        30.23R
6HR MIN TEMP:  49; 6HR MAX TEMP:  59;


$$
MOZ066>068-077>081-088>096-101>105-251300-
...SOUTHWEST MISSOURI...

CITY           SKY/WX    TMP DP  RH WIND       PRES   REMARKS
SPRINGFIELD    MOSUNNY   64  54  69 CALM      30.28R
6HR MIN TEMP:  60; 6HR MAX TEMP:  64;

JOPLIN         MOCLDY    64  60  87 CALM      30.28R
6HR MIN TEMP:  62; 6HR MAX TEMP:  66;

BRANSON        PTSUNNY   63  55  77 CALM      30.29R

$$
MOZ032>034-039>042-045>050-055>058-069>072-251300-
...CENTRAL MISSOURI...

CITY           SKY/WX    TMP DP  RH WIND       PRES   REMARKS
COLUMBIA       MOSUNNY   62  50  64 W6        30.23R
6HR MIN TEMP:  58; 6HR MAX TEMP:  62;

JEFFERSON CITY MOSUNNY   62  51  67 CALM      30.23R
6HR MIN TEMP:  58; 6HR MAX TEMP:  63;

ROLLA          SUNNY     55  51  86 SW7       30.24R
6HR MIN TEMP:  53; 6HR MAX TEMP:  57;

SEDALIA        MOSUNNY   63  54  72 W7        30.25R
6HR MIN TEMP:  58; 6HR MAX TEMP:  64;

WARRENSBURG    MOSUNNY   61  50  67 W6        30.25R
OSAGE BEACH    SUNNY     58  52  80 SW5       30.26R

$$
MOZ051-052-059>065-251300-
...EAST CENTRAL MISSOURI...

CITY           SKY/WX    TMP DP  RH WIND       PRES   REMARKS
ST LOUIS INTL  MOSUNNY   67  48  50 W10       30.20R
6HR MIN TEMP:  63; 6HR MAX TEMP:  67;

SPIRIT OF STL  MOSUNNY   63  51  65 SW9       30.20R
6HR MIN TEMP:  54; 6HR MAX TEMP:  63;

ST CHARLES     SUNNY     63  53  70 W7        30.20R
6HR MIN TEMP:  56; 6HR MAX TEMP:  63;


$$
MOZ072>076-082>087-097>100-106>115-251300-
...SOUTH CENTRAL AND SOUTHEAST MISSOURI...

CITY           SKY/WX    TMP DP  RH WIND       PRES   REMARKS
CAPE GIRARDEAU SUNNY     59  56  89 W3        30.22R
6HR MIN TEMP:  55; 6HR MAX TEMP:  62;

FARMINGTON     SUNNY     56  51  84 CALM      30.25R
6HR MIN TEMP:  51; 6HR MAX TEMP:  56;

POPLAR BLUFF   SUNNY     61  56  83 NW3       30.23R
6HR MIN TEMP:  58; 6HR MAX TEMP:  65;

WEST PLAINS    CLOUDY    60  54  80 CALM      30.28R
6HR MIN TEMP:  56; 6HR MAX TEMP:  61;


$$




USA.gov is the U.S. government's official web portal to all federal, state and local government web resources and services.